Crookston, MN

8:46 AM CDT on May 21, 2018 (GMT -0500)
Crookston Municipal-Kirkwood

Weather History for KCKN - February, 2014

Change the Weather History Date:

Sunday, February 16, 2014

  Actual Average Record
Temperature  
Mean Temperature 5 °F -  
Max Temperature 19 °F 21 °F 41 °F (2011)
Min Temperature -9 °F 4 °F -14 °F (1997)
Degree Days  
Heating Degree Days 60    
Moisture  
Dew Point 4 °F    
Average Humidity 82    
Maximum Humidity 93    
Minimum Humidity 68    
Precipitation  
Precipitation 0.00 in - - ()
Sea Level Pressure  
Sea Level Pressure 30.03 in    
Wind  
Wind Speed 8 mph (SSE)    
Max Wind Speed 25 mph    
Max Gust Speed 30 mph    
Visibility 9 miles    
Events Snow    
Averages and records for this station are not official NWS values.
T = Trace of Precipitation, MM = Missing Value Source: NWS Daily Summary

Daily Weather History Graph

Daily Weather History Graph

Search for Another Location

Airport or City:

Astronomy

Feb. 16, 2014 Rise Set
Actual Time 7:30 AM CST 5:51 PM CST
Civil Twilight 6:58 AM CST 6:22 PM CST
Nautical Twilight 6:22 AM CST 6:59 PM CST
Astronomical Twilight 5:47 AM CST 7:34 PM CST
Moon 8:01 PM CST (2/16) 7:50 AM CST (2/16)
Length of Visible Light 11h 23m
Length of Day
10h 20m
Full, 97% of the Moon is Illuminated
Feb 16
Full
Feb 22
Last Quarter
Mar 1
New
Mar 8
First Quarter
Mar 16
Full

Hourly Weather History & Observations

Time (CST) Temp. Windchill Dew Point Humidity Pressure Visibility Wind Dir Wind Speed Gust Speed Precip Events Conditions
12:15 AM 1.4 °F -11.3 °F -2.2 °F 85% 30.16 in 10.0 mi NNE 6.9 mph - N/A   Overcast
12:34 AM 3.2 °F -6.2 °F -2.2 °F 78% 30.16 in 10.0 mi NNE 4.6 mph - N/A Snow Light Snow
12:54 AM 3.2 °F -4.2 °F -2.2 °F 78% 30.16 in 10.0 mi NE 3.5 mph - N/A Snow Light Snow
1:14 AM 3.2 °F - -0.4 °F 85% 30.17 in 10.0 mi Calm Calm - N/A Snow Light Snow
1:34 AM 3.2 °F - -0.4 °F 85% 30.18 in 10.0 mi Calm Calm - N/A   Overcast
1:55 AM 3.2 °F -6.2 °F -0.4 °F 85% 30.18 in 10.0 mi NW 4.6 mph - N/A Snow Light Snow
2:14 AM 3.2 °F -6.2 °F -0.4 °F 85% 30.18 in 10.0 mi NNW 4.6 mph - N/A Snow Light Snow
2:34 AM 3.2 °F -7.8 °F -0.4 °F 85% 30.19 in 10.0 mi NW 5.8 mph - N/A Snow Light Snow
2:55 AM 3.2 °F -7.8 °F -0.4 °F 85% 30.19 in 10.0 mi NNW 5.8 mph - N/A   Overcast
3:14 AM 1.4 °F -9.9 °F -2.2 °F 85% 30.18 in 10.0 mi NNW 5.8 mph - N/A   Overcast
3:34 AM 1.4 °F -11.3 °F -2.2 °F 85% 30.18 in 10.0 mi North 6.9 mph - N/A   Overcast
3:55 AM 1.4 °F -9.9 °F -2.2 °F 85% 30.18 in 10.0 mi NNE 5.8 mph - N/A   Mostly Cloudy
4:14 AM -0.4 °F -10.4 °F -2.2 °F 92% 30.17 in 10.0 mi NE 4.6 mph - N/A Snow Light Snow
4:35 AM -0.4 °F - -4.0 °F 85% 30.17 in 10.0 mi Calm Calm - N/A Snow Light Snow
4:55 AM -0.4 °F - -4.0 °F 85% 30.15 in 10.0 mi Calm Calm - N/A Snow Light Snow
5:14 AM -4.0 °F - -7.6 °F 85% 30.16 in 10.0 mi Calm Calm - N/A   Clear
5:35 AM -5.8 °F - -9.4 °F 84% 30.17 in 10.0 mi Calm Calm - N/A   Clear
5:54 AM -4.0 °F - -7.6 °F 85% 30.16 in 10.0 mi Calm Calm - N/A   Clear
6:14 AM -5.8 °F -14.5 °F -9.4 °F 84% 30.17 in 10.0 mi SSE 3.5 mph - N/A   Clear
6:35 AM -2.2 °F -10.4 °F -5.8 °F 85% 30.17 in 10.0 mi SE 3.5 mph - N/A   Clear
6:54 AM -2.2 °F -12.5 °F -7.6 °F 78% 30.17 in 10.0 mi SSE 4.6 mph - N/A   Clear
7:14 AM -5.8 °F -19.9 °F -9.4 °F 84% 30.16 in 10.0 mi SE 6.9 mph - N/A   Clear
7:35 AM -4.0 °F -16.3 °F -7.6 °F 85% 30.16 in 10.0 mi SE 5.8 mph - N/A   Clear
7:54 AM -7.6 °F -22.1 °F -13.0 °F 77% 30.16 in 10.0 mi SSE 6.9 mph - N/A   Clear
8:14 AM -9.4 °F -24.3 °F -14.8 °F 77% 30.15 in 10.0 mi SSE 6.9 mph - N/A   Clear
8:35 AM -7.6 °F -22.1 °F -11.2 °F 84% 30.16 in 10.0 mi SSE 6.9 mph - N/A   Clear
8:54 AM -5.8 °F -19.9 °F -9.4 °F 84% 30.16 in 10.0 mi SSE 6.9 mph - N/A   Clear
9:15 AM -4.0 °F -20.2 °F -7.6 °F 85% 30.15 in 10.0 mi SSE 9.2 mph - N/A   Clear
9:35 AM -2.2 °F -18.0 °F -5.8 °F 85% 30.14 in 10.0 mi SSE 9.2 mph - N/A   Clear
9:54 AM -0.4 °F -15.7 °F -4.0 °F 85% 30.13 in 10.0 mi SSE 9.2 mph - N/A   Clear
10:15 AM 1.4 °F -13.5 °F -2.2 °F 85% 30.12 in 10.0 mi SSE 9.2 mph - N/A   Clear
10:34 AM 1.4 °F -12.5 °F -2.2 °F 85% 30.11 in 10.0 mi SSE 8.1 mph - N/A   Clear
10:54 AM 3.2 °F -12.2 °F 1.4 °F 92% 30.10 in 7.0 mi SSE 10.4 mph - N/A   Clear
11:15 AM 6.8 °F -7.8 °F 3.2 °F 85% 30.08 in 10.0 mi SSE 10.4 mph - N/A   Clear
11:34 AM 8.6 °F -8.3 °F 6.8 °F 92% 30.08 in 10.0 mi South 15.0 mph - N/A   Clear
11:54 AM 10.4 °F -6.6 °F 6.8 °F 85% 30.07 in 10.0 mi South 16.1 mph - N/A   Clear
12:15 PM 10.4 °F -6.0 °F 6.8 °F 85% 30.05 in 10.0 mi South 15.0 mph - N/A   Clear
12:34 PM 10.4 °F -6.6 °F 6.8 °F 85% 30.03 in 10.0 mi SSE 16.1 mph - N/A   Clear
12:54 PM 12.2 °F -4.3 °F 6.8 °F 79% 30.00 in 10.0 mi SSE 16.1 mph - N/A   Clear
1:15 PM 14.0 °F -3.0 °F 8.6 °F 79% 30.00 in 10.0 mi SSE 18.4 mph - N/A   Clear
1:34 PM 15.8 °F -0.2 °F 8.6 °F 73% 29.98 in 10.0 mi SSE 17.3 mph - N/A   Clear
1:54 PM 15.8 °F -0.2 °F 8.6 °F 73% 29.98 in 10.0 mi SSE 17.3 mph - N/A   Clear
2:14 PM 15.8 °F 1.4 °F 8.6 °F 73% 29.97 in 10.0 mi SSE 13.8 mph - N/A   Clear
2:34 PM 15.8 °F 0.3 °F 8.6 °F 73% 29.98 in 10.0 mi South 16.1 mph - N/A   Clear
2:55 PM 15.8 °F 0.3 °F 8.6 °F 73% 29.96 in 10.0 mi South 16.1 mph - N/A   Clear
3:14 PM 15.8 °F 1.4 °F 8.6 °F 73% 29.97 in 10.0 mi South 13.8 mph - N/A   Clear
3:34 PM 15.8 °F 1.4 °F 8.6 °F 73% 29.96 in 10.0 mi South 13.8 mph - N/A   Clear
3:55 PM 15.8 °F 1.4 °F 10.4 °F 79% 29.95 in 10.0 mi South 13.8 mph - N/A   Clear
4:14 PM 15.8 °F 0.9 °F 10.4 °F 79% 29.93 in 10.0 mi SSE 15.0 mph - N/A   Clear
4:34 PM 17.6 °F 3.7 °F 12.2 °F 79% 29.92 in 10.0 mi SSE 13.8 mph - N/A   Clear
4:55 PM 17.6 °F 3.7 °F 10.4 °F 73% 29.92 in 10.0 mi SSE 13.8 mph - N/A   Clear
5:14 PM 17.6 °F 1.7 °F 12.2 °F 79% 29.90 in 10.0 mi SSE 18.4 mph - N/A   Clear
5:35 PM 17.6 °F 1.7 °F 12.2 °F 79% 29.89 in 10.0 mi SSE 18.4 mph - N/A   Clear
5:54 PM 17.6 °F 0.5 °F 12.2 °F 79% 29.88 in 10.0 mi SSE 21.9 mph - N/A   Scattered Clouds
6:14 PM 17.6 °F 1.3 °F 12.2 °F 79% 29.88 in 10.0 mi SSE 19.6 mph - N/A   Scattered Clouds
6:35 PM 17.6 °F 1.7 °F 12.2 °F 79% 29.87 in 10.0 mi SSE 18.4 mph - N/A   Mostly Cloudy
6:54 PM 19.4 °F 3.2 °F 12.2 °F 74% 29.86 in 10.0 mi SSE 20.7 mph - N/A   Mostly Cloudy
7:14 PM 19.4 °F 1.8 °F 12.2 °F 74% 29.85 in 5.0 mi SSE 25.3 mph 29.9 mph N/A   Haze
7:35 PM 19.4 °F 2.5 °F 12.2 °F 74% 29.85 in 10.0 mi SSE 23.0 mph - N/A   Mostly Cloudy
7:54 PM 19.4 °F 2.5 °F 12.2 °F 74% 29.84 in 7.0 mi SSE 23.0 mph - N/A   Overcast
8:15 PM 19.4 °F 4.5 °F 12.2 °F 74% 29.85 in 10.0 mi South 17.3 mph - N/A   Overcast
8:35 PM 19.4 °F 6.0 °F 10.4 °F 68% 29.87 in 10.0 mi South 13.8 mph - N/A   Overcast
8:54 PM 19.4 °F 5.5 °F 10.4 °F 68% 29.86 in 10.0 mi South 15.0 mph - N/A   Scattered Clouds
9:15 PM 17.6 °F 3.7 °F 12.2 °F 79% 29.85 in 1.0 mi South 13.8 mph - N/A Snow Light Snow
9:35 PM 17.6 °F 3.2 °F 14.0 °F 86% 29.84 in 1.2 mi South 15.0 mph - N/A Snow Light Snow
9:54 PM 17.6 °F 3.7 °F 14.0 °F 86% 29.83 in 0.8 mi South 13.8 mph - N/A Snow Snow
10:15 PM 17.6 °F 5.0 °F 15.8 °F 93% 29.83 in 1.2 mi South 11.5 mph - N/A Snow Light Snow
10:34 PM 17.6 °F 5.0 °F 15.8 °F 93% 29.82 in 1.0 mi South 11.5 mph - N/A Snow Snow
10:54 PM 17.6 °F 5.7 °F 15.8 °F 93% 29.82 in 4.0 mi South 10.4 mph - N/A Snow Light Snow
11:15 PM 17.6 °F 2.7 °F 15.8 °F 93% 29.80 in 7.0 mi South 16.1 mph - N/A Snow Light Snow
11:34 PM 17.6 °F 3.7 °F 15.8 °F 93% 29.80 in 4.0 mi South 13.8 mph - N/A Snow Light Snow
11:54 PM 17.6 °F 3.2 °F 15.8 °F 93% 29.80 in 3.0 mi South 15.0 mph - N/A Snow Light Snow